Regional Weather Roundup
Issued by NWS Kansas City/Pleasant Hill, MO

Home | Current Version | Previous Version | Text Only | Print | Product List | Glossary On
Versions: 1 2 3 4 5 6 7 8 9 10 11 12 13 14 15 16 17 18 19 20 21 22 23 24 25 26 27 28 29 30 31 32 33 34 35 36 37 38 39 40 41 42 43 44 45 46 47 48 49 50
000
ASUS43 KEAX 031310
RWREAX

WEATHER ROUNDUP FOR EASTERN KANSAS AND NORTHWEST MISSOURI
NATIONAL WEATHER SERVICE KANSAS CITY/PLEASANT HILL MO
800 AM CDT THU SEP 03 2015

KSZ040-057-103>105-MOZ028-029-037-043-031400-
...KANSAS CITY METROPOLITAN AREA...

CITY           SKY/WX    TMP DP  RH WIND       PRES   REMARKS
K.C. INTL      PTSUNNY   76  67  73 S13       29.95R
K.C. DOWNTOWN  SUNNY     77  68  73 S5        29.95R
LEES SUMMIT    SUNNY     74  66  76 S9        29.98R
OLATHE - IXD   MOSUNNY   73  68  84 S10       29.97R
OLATHE - OJC   MOSUNNY   72  67  84 S7        29.97R
LAWRENCE       MOSUNNY   74  68  81 SE6       29.95R

$$

MOZ001>008-011>017-020>025-030>033-038>040-044>046-053-054-031400-
...NORTHERN AND CENTRAL MISSOURI...

CITY           SKY/WX    TMP DP  RH WIND       PRES   REMARKS
ST. JOSEPH     MOSUNNY   75  69  81 S6        29.94R
MOSBY          SUNNY     72  68  88 CALM      29.96R
WARRENSBURG    SUNNY     72  66  83 S3        29.98R
WHITEMAN AFB   MOSUNNY   71  68  90 SW7       29.98R
CLINTON        SUNNY     73  70  88 S8        30.00R
SEDALIA        MOSUNNY   73  67  81 S8        30.01R
WARSAW         NOT AVBL
CHILLICOTHE      N/A     74  70  87 S3        29.97R
KIRKSVILLE     SUNNY     72  68  87 S7        29.99R

$$

MOZ041-047>049-056>058-063>065-088>090-097-031400-
...EASTERN AND SOUTHERN MISSOURI...

CITY           SKY/WX    TMP DP  RH WIND       PRES   REMARKS
ST. LOUIS INTL MOSUNNY   79  68  69 CALM      30.03R
SPIRIT OF STL  PTSUNNY   76  72  87 CALM      30.01R
COLUMBIA       PTSUNNY   72  69  90 S6        30.01R
JEFFERSON CITY PTSUNNY   73  68  84 SE6       30.01R
ROLLA          MOSUNNY   73  68  84 S7        30.03R
OSAGE BEACH    SUNNY     70  64  83 SE3       30.03R
SPRINGFIELD    SUNNY     72  66  81 S8        30.03R
BRANSON        SUNNY     70  66  88 CALM      30.06R
JOPLIN         SUNNY     72  67  84 S7        30.02R
WEST PLAINS    SUNNY     70  66  87 CALM      30.07R

$$

IAZ060-094-KSZ022-034>040-054-083-096-NEZ052-066-093-031400-
...KANSAS...SOUTHEAST NEBRASKA AND IOWA...

CITY           SKY/WX    TMP DP  RH WIND       PRES   REMARKS
TOPEKA         MOSUNNY   76  67  73 S3        29.94R
MANHATTAN      MOSUNNY   76  64  66 S9        29.90R
EMPORIA        PTSUNNY   72  66  81 S12       29.95R
CHANUTE        MOSUNNY   71  68  90 S7        29.99R
WICHITA        PTSUNNY   74  63  68 S13       29.95R
OMAHA          MOSUNNY   75  68  78 S9        29.86R
LINCOLN        SUNNY     76  65  68 S13       29.84R
FALLS CITY     PTSUNNY   74  67  78 S10       29.90R
LAMONI         PTSUNNY   72  69  90 S9        29.94S
DES MOINES     PTSUNNY   74  69  85 S6        29.91R

$$




USA.gov is the U.S. government's official web portal to all federal, state and local government web resources and services.